Terminal Aerodrome Forecast
Issued by NWS Medford, OR

Home | Current Version | Previous Version | Text Only | Print | Product List | Glossary On
Versions: 1 2 3 4 5 6 7 8 9 10 11 12
058
FTUS46 KMFR 252339
TAFMFR
TAF
KMFR 252339Z 2600/2624 30010G16KT P6SM SKC
     FM260400 35004KT P6SM SKC
     FM262200 30012G17KT P6SM SKC=

USA.gov is the U.S. government's official web portal to all federal, state and local government web resources and services.